Location: Wanzleben
(52.0609°N, 11.4408°E)
Time: 19:12:53
(UTC+00:00)

SPOT 3 Rocket - Pass Details

Date: 18 September 2020
Orbit: 779 x 794 km, 98.8° (Epoch: 22 October)

Event Time Altitude Azimuth Distance (km) Brightness Sun altitude
Exits shadow 20:03:39 24° 201° (SSW) 1,562 4.9 -24.0°
Maximum altitude 20:06:23 46° 261° (W) 1,049 4.4 -24.3°
Drops below altitude 10° 20:11:21 10° 334° (NNW) 2,346 6.9 -24.9°
Sets 20:13:47 0° 341° (NNW) 3,280 7.7 -25.2°
